Tracking 29892 objects as of 21-Nov-2024
HD Live streaming from Space Station
objects crossing your sky now

COSMOS 836

Track COSMOS 836 now!
10-day predictions
COSMOS 836 is classified as:


NORAD ID: 8923
Int'l Code: 1976-061A
Perigee: 772.8 km
Apogee: 799.7 km
Inclination: 74.1 °
Period: 100.4 minutes
Semi major axis: 7157 km
RCS: 1.916 m2 (large)
Launch date: June 29, 1976
Source: Commonwealth of Independent States (former USSR) (CIS)
Launch site: PLESETSK MISSILE AND SPACE COMPLEX (PKMTR)
Your satellite tracking list
Your tracking list is empty




NASA's NSSDC Master Catalog

Two Line Element Set (TLE):
1 08923U 76061A   24325.90027336  .00000398  00000-0  15209-3 0  9998
2 08923  74.0522 303.1311 0018786 320.0021  39.9746 14.33792567528037
Source of the keplerian elements: AFSPC